TimeCST,TemperatureF,Dew PointF,Humidity,Sea Level PressureIn,VisibilityMPH,Wind Direction,Wind SpeedMPH,Gust SpeedMPH,PrecipitationIn,Events,Conditions,WindDirDegrees,DateUTC
12:15 AM,23.0,17.6,80,30.10,10.0,NNW,5.8,-,N/A,,Partly Cloudy,340,2012-12-31 06:15:00
12:35 AM,23.0,15.8,74,30.10,10.0,NNW,5.8,-,N/A,,Clear,340,2012-12-31 06:35:00
12:55 AM,21.2,15.8,80,30.11,10.0,NNW,4.6,-,N/A,,Clear,330,2012-12-31 06:55:00
1:15 AM,19.4,15.8,86,30.12,10.0,Calm,Calm,-,N/A,,Clear,0,2012-12-31 07:15:00
1:35 AM,19.4,14.0,80,30.12,10.0,NNW,9.2,-,N/A,,Clear,340,2012-12-31 07:35:00
1:55 AM,19.4,15.8,86,30.12,10.0,North,8.1,-,N/A,,Partly Cloudy,350,2012-12-31 07:55:00
2:15 AM,19.4,15.8,86,30.10,10.0,North,12.7,-,N/A,,Mostly Cloudy,360,2012-12-31 08:15:00
2:35 AM,19.4,15.8,86,30.09,10.0,North,13.8,18.4,N/A,,Overcast,360,2012-12-31 08:35:00
2:55 AM,21.2,15.8,80,30.11,10.0,North,15.0,-,N/A,,Overcast,10,2012-12-31 08:55:00
3:15 AM,21.2,15.8,80,30.11,10.0,North,17.3,-,N/A,,Overcast,10,2012-12-31 09:15:00
3:35 AM,21.2,15.8,80,30.12,10.0,North,12.7,-,N/A,,Overcast,10,2012-12-31 09:35:00
3:55 AM,21.2,15.8,80,30.12,10.0,NNE,4.6,-,N/A,,Overcast,30,2012-12-31 09:55:00
4:15 AM,21.2,15.8,80,30.13,10.0,Calm,Calm,-,N/A,,Overcast,0,2012-12-31 10:15:00
4:35 AM,21.2,15.8,80,30.12,10.0,North,5.8,-,N/A,,Overcast,10,2012-12-31 10:35:00
4:55 AM,19.4,15.8,86,30.11,10.0,North,16.1,-,N/A,,Overcast,10,2012-12-31 10:55:00
5:15 AM,19.4,15.8,86,30.10,10.0,North,19.6,-,N/A,,Overcast,10,2012-12-31 11:15:00
5:35 AM,19.4,15.8,86,30.11,10.0,North,20.7,-,N/A,,Overcast,10,2012-12-31 11:35:00
6:15 AM,19.4,15.8,86,30.12,10.0,NNE,16.1,-,N/A,,Overcast,20,2012-12-31 12:15:00
6:55 AM,17.6,15.8,93,30.13,10.0,NNE,17.3,-,N/A,,Overcast,20,2012-12-31 12:55:00
7:15 AM,17.6,15.8,93,30.13,10.0,NNE,18.4,-,N/A,,Overcast,20,2012-12-31 13:15:00
7:35 AM,17.6,15.8,93,30.14,9.0,NNE,16.1,-,N/A,,Overcast,20,2012-12-31 13:35:00
7:55 AM,17.6,15.8,93,30.13,8.0,NNE,16.1,-,N/A,,Overcast,20,2012-12-31 13:55:00
8:15 AM,17.6,15.8,93,30.13,8.0,NNE,16.1,-,N/A,,Overcast,30,2012-12-31 14:15:00
8:35 AM,17.6,15.8,93,30.14,7.0,NNE,13.8,-,N/A,,Overcast,30,2012-12-31 14:35:00
8:55 AM,17.6,15.8,93,30.14,7.0,NE,12.7,-,N/A,,Overcast,40,2012-12-31 14:55:00
9:15 AM,19.4,15.8,86,30.14,6.0,NE,12.7,-,N/A,,Overcast,40,2012-12-31 15:15:00
9:35 AM,19.4,15.8,86,30.15,6.0,NE,12.7,-,N/A,,Overcast,40,2012-12-31 15:35:00
9:55 AM,19.4,15.8,86,30.16,8.0,NE,16.1,-,N/A,,Overcast,50,2012-12-31 15:55:00
10:15 AM,19.4,15.8,86,30.17,9.0,NE,16.1,-,N/A,,Overcast,50,2012-12-31 16:15:00
10:35 AM,19.4,15.8,86,30.18,9.0,NE,13.8,-,N/A,,Overcast,50,2012-12-31 16:35:00
10:55 AM,19.4,17.6,93,30.18,9.0,NE,13.8,-,N/A,,Overcast,50,2012-12-31 16:55:00
11:15 AM,19.4,17.6,93,30.18,9.0,NE,13.8,-,N/A,,Overcast,40,2012-12-31 17:15:00
11:35 AM,19.4,17.6,93,30.19,9.0,ENE,10.4,-,N/A,,Overcast,60,2012-12-31 17:35:00
11:55 AM,19.4,17.6,93,30.18,8.0,NE,11.5,-,N/A,,Overcast,40,2012-12-31 17:55:00
12:15 PM,19.4,17.6,93,30.17,9.0,NE,12.7,-,N/A,,Overcast,50,2012-12-31 18:15:00
12:35 PM,19.4,17.6,93,30.16,8.0,NE,12.7,-,N/A,,Overcast,50,2012-12-31 18:35:00
12:55 PM,19.4,17.6,93,30.14,9.0,NE,16.1,-,N/A,,Overcast,40,2012-12-31 18:55:00
1:15 PM,19.4,15.8,86,30.13,10.0,NE,15.0,-,N/A,,Overcast,40,2012-12-31 19:15:00
1:35 PM,19.4,15.8,86,30.12,10.0,NE,16.1,-,N/A,,Overcast,40,2012-12-31 19:35:00
1:55 PM,19.4,15.8,86,30.12,10.0,NE,15.0,-,N/A,,Overcast,40,2012-12-31 19:55:00
2:15 PM,19.4,15.8,86,30.12,10.0,NE,13.8,-,N/A,,Overcast,40,2012-12-31 20:15:00
2:35 PM,19.4,15.8,86,30.11,10.0,NE,15.0,-,N/A,,Overcast,40,2012-12-31 20:35:00
2:55 PM,19.4,15.8,86,30.11,10.0,NNE,16.1,-,N/A,,Overcast,30,2012-12-31 20:55:00
3:15 PM,19.4,15.8,86,30.11,10.0,NNE,15.0,-,N/A,,Overcast,30,2012-12-31 21:15:00
3:35 PM,19.4,15.8,86,30.12,7.0,NE,15.0,-,N/A,Snow,Light Snow,40,2012-12-31 21:35:00
3:55 PM,19.4,15.8,86,30.13,4.0,NE,15.0,-,N/A,Snow,Light Snow,40,2012-12-31 21:55:00
4:15 PM,19.4,15.8,86,30.14,4.0,NNE,12.7,-,N/A,Snow,Light Snow,30,2012-12-31 22:15:00
4:35 PM,19.4,17.6,93,30.15,1.5,NNE,10.4,-,N/A,Snow,Light Snow,30,2012-12-31 22:35:00
4:55 PM,19.4,15.8,86,30.16,2.0,NNE,9.2,-,N/A,Snow,Light Snow,30,2012-12-31 22:55:00
5:15 PM,19.4,15.8,86,30.16,0.8,NNE,10.4,-,N/A,Snow,Light Snow,30,2012-12-31 23:15:00
5:35 PM,19.4,15.8,86,30.16,1.5,NNE,11.5,-,N/A,Snow,Light Snow,30,2012-12-31 23:35:00
5:55 PM,19.4,15.8,86,30.16,10.0,NNE,13.8,-,N/A,,Mostly Cloudy,30,2012-12-31 23:55:00
6:15 PM,19.4,14.0,80,30.16,10.0,NNE,12.7,-,N/A,,Overcast,30,2013-01-01 00:15:00
6:35 PM,19.4,14.0,80,30.16,10.0,NNE,12.7,-,N/A,,Overcast,30,2013-01-01 00:35:00
6:55 PM,19.4,14.0,80,30.16,10.0,NNE,11.5,-,N/A,,Overcast,20,2013-01-01 00:55:00
7:35 PM,19.4,14.0,80,30.17,10.0,NNE,11.5,-,N/A,,Overcast,20,2013-01-01 01:35:00
7:55 PM,19.4,15.8,86,30.18,10.0,NNE,12.7,-,N/A,,Overcast,20,2013-01-01 01:55:00
8:35 PM,19.4,14.0,80,30.17,10.0,NNE,13.8,-,N/A,,Overcast,20,2013-01-01 02:35:00
8:55 PM,19.4,14.0,80,30.17,10.0,NNE,12.7,-,N/A,,Overcast,20,2013-01-01 02:55:00
9:35 PM,17.6,14.0,86,30.18,10.0,NNE,11.5,-,N/A,,Overcast,20,2013-01-01 03:35:00
9:55 PM,17.6,14.0,86,30.18,10.0,NNE,11.5,-,N/A,,Overcast,20,2013-01-01 03:55:00
10:15 PM,17.6,14.0,86,30.19,10.0,NNE,11.5,-,N/A,,Overcast,20,2013-01-01 04:15:00
10:35 PM,15.8,14.0,93,30.19,10.0,North,11.5,-,N/A,,Overcast,10,2013-01-01 04:35:00
10:55 PM,15.8,14.0,93,30.20,10.0,North,12.7,-,N/A,,Overcast,10,2013-01-01 04:55:00
11:15 PM,15.8,12.2,86,30.21,10.0,North,8.1,-,N/A,,Overcast,10,2013-01-01 05:15:00
11:35 PM,14.0,10.4,86,30.21,10.0,North,5.8,-,N/A,,Overcast,360,2013-01-01 05:35:00
11:55 PM,14.0,10.4,86,30.21,10.0,North,4.6,-,N/A,,Overcast,360,2013-01-01 05:55:00